Location: Lac Echo
(45.9375°N, 75.4580°W)
Time: 02:48:46
(UTC-04:00)

Amateur Radio Satellites - All Passes

Search period start: 25 July 2017 02:18
Search period end: 26 July 2017 02:18
Location: Lac Echo, 45.9375°N, 75.4580°W

Satellite Date Start Highest point End Downlink Frequencies (MHz)
Time Altitude Azimuth
BEESAT 25 Jul 02:22:43 02:26:49 29° 65° (ENE) 02:30:56 436.000
DUCHIFAT 1 25 Jul 02:22:45 02:25:47 20° 296° (WNW) 02:28:48 145.980
Tancredo 1 25 Jul 02:22:58 02:25:55 78° 210° (SSW) 02:28:52 437.200
50 SAT 25 Jul 02:25:09 02:26:14 11° 269° (W) 02:27:20 437.505
POLYITAN 1 25 Jul 02:25:17 02:27:50 16° 298° (WNW) 02:30:23 437.675
UKube-1 25 Jul 02:31:51 02:35:34 28° 264° (W) 02:39:19 .
O/OREOS (USA 219) 25 Jul 02:33:56 02:37:20 21° 258° (WSW) 02:40:43 437.305
ITUPSAT 1 25 Jul 02:35:27 02:39:49 37° 68° (ENE) 02:44:14 437.325
nSIGHT-1 25 Jul 02:38:53 02:42:06 65° 24° (NNE) 02:45:19 .
QB50P2 25 Jul 02:39:25 02:40:42 11° 302° (WNW) 02:41:58 145.880/145.840
BUGSAT 1 25 Jul 02:52:00 02:55:34 28° 293° (WNW) 02:59:04 437.445
Oscar 19 25 Jul 03:02:44 03:07:53 70° 287° (WNW) 03:13:02 437.125/150
ITAMSAT 1 25 Jul 03:16:26 03:18:56 13° 88° (E) 03:21:26 435.822/435.867
MOZHAYETS 4 25 Jul 03:24:49 03:29:24 79° 74° (ENE) 03:33:59
Gurwin Techsat 1B 25 Jul 03:27:09 03:32:27 67° 288° (WNW) 03:37:42 435.225
ISS 25 Jul 03:32:54 03:36:05 51° 214° (SW) 03:39:16 437.550
AO-7 25 Jul 03:33:20 03:40:14 28° 93° (E) 03:47:03 .
CUBESAT XI-V 25 Jul 03:59:16 04:03:29 37° 69° (ENE) 04:07:43 437.345
Tancredo 1 25 Jul 03:59:59 04:00:51 11° 227° (SW) 04:01:43 437.200
BEESAT 25 Jul 04:00:07 04:04:29 35° 263° (W) 04:08:53 436.000
KKS-1 25 Jul 04:07:56 04:11:44 27° 65° (ENE) 04:15:32 437.445
RS-15 25 Jul 04:11:08 04:17:05 15° 267° (W) 04:22:54 29.354- 29.394
ITUPSAT 1 25 Jul 04:13:39 04:17:43 27° 265° (W) 04:21:48 437.325
nSIGHT-1 25 Jul 04:15:42 04:18:16 22° 222° (SW) 04:20:49 .
PCSat 25 Jul 04:36:51 04:40:51 22° 107° (ESE) 04:44:54 145.827
STARS 25 Jul 04:38:20 04:41:56 25° 65° (ENE) 04:45:32 437.465
Oscar 19 25 Jul 04:44:39 04:46:17 11° 306° (NW) 04:47:55 437.125/150
ITAMSAT 1 25 Jul 04:53:50 04:59:05 84° 285° (WNW) 05:04:16 435.822/435.867
YUBILEINY 25 Jul 05:01:43 05:09:18 31° 65° (ENE) 05:16:47 435.215
MOZHAYETS 4 25 Jul 05:05:26 05:07:07 12° 272° (W) 05:08:48
Gurwin Techsat 1B 25 Jul 05:09:46 05:11:24 11° 307° (NW) 05:13:02 435.225
AO-7 25 Jul 05:25:21 05:33:43 74° 293° (WNW) 05:42:00 .
DOVE 4 25 Jul 05:33:17 05:37:17 21° 90° (E) 05:41:09 437.250
CUBESAT XI-V 25 Jul 05:37:09 05:40:56 25° 266° (W) 05:44:46 437.345
KKS-1 25 Jul 05:44:06 05:48:09 34° 263° (W) 05:52:16 437.445
STARS 25 Jul 06:13:58 06:18:05 37° 262° (W) 06:22:14 437.465
PCSat 25 Jul 06:18:24 06:23:46 64° 305° (NW) 06:29:12 145.827
XW-2D 25 Jul 06:21:37 06:24:19 19° 93° (E) 06:27:02 145.860 - 145.880
XW-2B 25 Jul 06:31:24 06:34:28 23° 94° (E) 06:37:31 145.730 - 145.750
ITAMSAT 1 25 Jul 06:35:09 06:37:44 14° 305° (NW) 06:40:20 435.822/435.867
SO-50 25 Jul 06:38:18 06:42:35 42° 119° (ESE) 06:46:51 436.795
CUTE-I 25 Jul 06:40:58 06:45:39 29° 95° (E) 06:50:16 437.470
HO-68 25 Jul 06:41:32 06:44:04 12° 84° (E) 06:46:35 435.675
STRAND 1 25 Jul 06:45:45 06:50:24 35° 66° (ENE) 06:55:03 437.568
XW-2C 25 Jul 06:48:24 06:51:55 36° 98° (E) 06:55:26 145.795 - 145.815
NUDT-PHONESAT 25 Jul 06:56:25 06:59:48 33° 97° (E) 07:03:09 437.300
YUBILEINY 25 Jul 06:58:08 07:06:49 67° 267° (W) 07:15:24 435.215
CUTE 1.7 + AOD 2 25 Jul 07:09:28 07:11:14 12° 88° (E) 07:12:59 437.475
DOVE 4 25 Jul 07:10:07 07:15:18 56° 289° (WNW) 07:20:18 437.250
KAITUO 1B 25 Jul 07:10:34 07:14:13 51° 100° (E) 07:17:51 145.475/437.950
LilacSat-2 25 Jul 07:11:34 07:15:22 75° 103° (ESE) 07:19:09 437.200
AO-7 25 Jul 07:19:26 07:25:08 21° 315° (NW) 07:30:50 .
SEEDS 25 Jul 07:22:36 07:23:24 10° 87° (E) 07:24:12 437.485
XW-2F 25 Jul 07:26:10 07:29:54 81° 286° (WNW) 07:33:40 145.980 - 146.000
FO-29 25 Jul 07:26:33 07:30:34 15° 47° (NE) 07:34:34 435.910
XW-2D 25 Jul 07:55:11 07:58:37 34° 290° (WNW) 08:02:02 145.860 - 145.880
AAUSAT CUBESAT 2 25 Jul 08:04:48 08:07:07 14° 90° (E) 08:09:25 437.432
PCSat 25 Jul 08:04:55 08:08:16 16° 328° (NNW) 08:11:39 145.827
XW-2B 25 Jul 08:05:24 08:08:39 28° 291° (WNW) 08:11:52 145.730 - 145.750
XW-2A 25 Jul 08:14:13 08:17:15 32° 97° (E) 08:20:17 145.665 - 145.685
SO-50 25 Jul 08:19:10 08:23:10 30° 318° (NW) 08:27:10 436.795
CUTE-I 25 Jul 08:20:47 08:25:48 42° 293° (WNW) 08:30:47 437.470
XW-2C 25 Jul 08:23:14 08:25:52 18° 295° (WNW) 08:28:30 145.795 - 145.815
CUBEBUG 2 25 Jul 08:23:26 08:27:26 37° 97° (E) 08:31:19 437.445
STRAND 1 25 Jul 08:24:57 08:29:34 33° 264° (W) 08:34:13 437.568
HO-68 25 Jul 08:25:58 08:33:07 67° 104° (ESE) 08:40:13 435.675
NUDT-PHONESAT 25 Jul 08:30:49 08:33:28 19° 294° (WNW) 08:36:07 437.300
AO-73 25 Jul 08:39:49 08:42:32 17° 91° (E) 08:45:14 145.935
CUTE 1.7 + AOD 2 25 Jul 08:43:17 08:47:31 68° 286° (WNW) 08:51:44 437.475
KAITUO 1B 25 Jul 08:45:53 08:47:48 14° 297° (WNW) 08:49:44 145.475/437.950
LilacSat-2 25 Jul 08:48:23 08:49:04 10° 299° (WNW) 08:49:46 437.200
TIGRISAT 25 Jul 08:54:41 08:57:45 18° 62° (ENE) 09:00:47 435.000
SEEDS 25 Jul 08:55:23 08:59:37 78° 284° (WNW) 09:03:50 437.485
YUBILEINY 25 Jul 08:58:00 09:01:47 14° 289° (WNW) 09:05:34 435.215
M-CUBED/EXP-1 PRIME 25 Jul 09:04:46 09:06:42 14° 53° (NE) 09:08:42 437.505
FO-29 25 Jul 09:06:30 09:13:57 57° 68° (ENE) 09:21:36 435.910
UWE-3 25 Jul 09:21:12 09:25:26 87° 290° (WNW) 09:29:35 435.000/436.395/437.385
ZACube-1 25 Jul 09:34:45 09:38:55 73° 102° (ESE) 09:43:02 437.345
AAUSAT CUBESAT 2 25 Jul 09:38:49 09:42:55 56° 287° (WNW) 09:47:00 437.432
PRISM 25 Jul 09:40:59 09:44:50 41° 69° (ENE) 09:48:43 437.425
UNISAT 6 25 Jul 09:45:13 09:49:45 55° 72° (ENE) 09:54:14 437.425
XW-2A 25 Jul 09:47:37 09:49:45 16° 294° (WNW) 09:51:52 145.665 - 145.685
CUBEBUG 2 25 Jul 10:00:31 10:03:50 22° 295° (WNW) 10:07:05 437.445
Oscar 11 25 Jul 10:00:37 10:04:58 87° 282° (WNW) 10:09:17 .
HO-68 25 Jul 10:14:26 10:20:19 29° 303° (WNW) 10:26:12 435.675
AO-73 25 Jul 10:15:03 10:19:02 45° 289° (WNW) 10:22:59 145.935
QB50P2 25 Jul 10:24:02 10:24:54 11° 58° (ENE) 10:25:45 145.880/145.840
TIGRISAT 25 Jul 10:29:25 10:34:01 59° 260° (W) 10:38:32 435.000
EO-79 25 Jul 10:34:56 10:36:47 13° 59° (ENE) 10:38:37 145.935-145.965
NANOSAT C BR1 25 Jul 10:35:20 10:36:45 11° 59° (ENE) 10:38:09 145.865
M-CUBED/EXP-1 PRIME 25 Jul 10:36:53 10:40:32 66° 254° (WSW) 10:44:31 437.505
DELFI C3 25 Jul 10:39:56 10:43:57 67° 101° (E) 10:47:56 145.870
FO-29 25 Jul 10:52:15 10:59:12 36° 267° (W) 11:06:22 435.910
AIST 2D 25 Jul 10:55:37 10:58:46 32° 71° (ENE) 11:01:55 435.315
UWE-3 25 Jul 11:01:04 11:01:10 10° 302° (WNW) 11:01:16 435.000/436.395/437.385
EO-88 25 Jul 11:04:50 11:08:30 84° 102° (ESE) 11:12:08 145.990 - 145.960
LO-87 25 Jul 11:10:02 11:11:41 13° 90° (E) 11:13:20 145.935 - 145.965
ZACube-1 25 Jul 11:12:53 11:14:37 12° 300° (WNW) 11:16:20 437.345
PRISM 25 Jul 11:17:20 11:20:17 19° 267° (W) 11:23:15 437.425
NO-84 25 Jul 11:18:56 11:21:39 30° 134° (SE) 11:24:33 435.350 FM
UNISAT 6 25 Jul 11:23:41 11:26:46 17° 269° (W) 11:29:50 437.425
PCSat 25 Jul 11:39:17 11:40:31 11° 22° (NNE) 11:41:45 145.827
Oscar 11 25 Jul 11:39:24 11:40:23 11° 302° (WNW) 11:41:22 .
DUCHIFAT 1 25 Jul 11:40:05 11:44:06 43° 71° (ENE) 11:48:08 145.980
POLYITAN 1 25 Jul 11:42:43 11:46:54 57° 73° (ENE) 11:51:06 437.675
QB50P2 25 Jul 11:55:41 11:59:59 86° 72° (ENE) 12:04:16 145.880/145.840
NANOSAT C BR1 25 Jul 12:07:32 12:11:48 86° 259° (WSW) 12:16:05 145.865
EO-79 25 Jul 12:07:40 12:11:56 78° 257° (WSW) 12:16:14 145.935-145.965
BUGSAT 1 25 Jul 12:08:25 12:12:01 27° 67° (ENE) 12:15:36 437.445
AO-85 25 Jul 12:12:35 12:15:04 16° 113° (ESE) 12:17:32 145.980
DELFI C3 25 Jul 12:16:23 12:18:12 13° 299° (WNW) 12:19:58 145.870
AIST 2D 25 Jul 12:29:47 12:32:04 16° 268° (W) 12:34:22 435.315
LO-87 25 Jul 12:41:54 12:45:24 47° 288° (WNW) 12:48:51 145.935 - 145.965
SPROUT 25 Jul 12:42:23 12:45:49 23° 94° (E) 12:49:13 437.525
Oscar 19 25 Jul 12:43:36 12:48:04 31° 65° (ENE) 12:52:33 437.125/150
ESTCUBE 1 25 Jul 12:44:29 12:49:03 89° 118° (ESE) 12:53:35 437.505/2401.250
AO-7 25 Jul 12:47:52 12:51:44 14° 37° (NE) 12:55:35 .
BEESAT 3 25 Jul 12:50:27 12:54:10 38° 118° (ESE) 12:57:56 437.485
NO-84 25 Jul 12:56:01 12:59:01 38° 335° (NNW) 13:02:16 435.350 FM
Gurwin Techsat 1B 25 Jul 13:11:26 13:16:15 37° 66° (ENE) 13:21:07 435.225
DUCHIFAT 1 25 Jul 13:16:55 13:19:58 19° 268° (W) 13:23:00 145.980
POLYITAN 1 25 Jul 13:20:39 13:23:03 15° 270° (W) 13:25:28 437.675
PCSat 25 Jul 13:20:45 13:25:41 33° 46° (NE) 13:30:34 145.827
SO-50 25 Jul 13:27:21 13:30:19 17° 32° (NNE) 13:33:15 436.795
VELOX 1 25 Jul 13:28:57 13:33:23 59° 101° (ESE) 13:37:47 145.980
BEESAT 2 25 Jul 13:30:59 13:34:38 35° 117° (ESE) 13:38:20 435.950
DX 1 25 Jul 13:34:07 13:37:31 22° 93° (E) 13:40:54 434.975-435.025
50 SAT 25 Jul 13:42:05 13:45:14 33° 98° (E) 13:48:23 437.505
BUGSAT 1 25 Jul 13:43:31 13:47:16 30° 264° (W) 13:51:03 437.445
AO-85 25 Jul 13:51:10 13:55:03 53° 310° (NW) 13:58:55 145.980
RS-15 25 Jul 14:14:11 14:21:18 18° 95° (E) 14:28:26 29.354- 29.394
UKube-1 25 Jul 14:15:37 14:19:41 38° 98° (E) 14:23:43 .
SPROUT 25 Jul 14:17:54 14:21:48 36° 291° (WNW) 14:25:41 437.525
Oscar 19 25 Jul 14:22:34 14:27:18 37° 263° (W) 14:32:02 437.125/150
ESTCUBE 1 25 Jul 14:23:21 14:25:09 12° 302° (WNW) 14:26:56 437.505/2401.250
BEESAT 3 25 Jul 14:28:22 14:31:51 27° 318° (NW) 14:35:20 437.485
AO-7 25 Jul 14:34:37 14:42:30 49° 60° (ENE) 14:50:26 .
NO-84 25 Jul 14:34:42 14:37:14 19° 356° (N) 14:39:56 435.350 FM
ITAMSAT 1 25 Jul 14:35:52 14:40:16 28° 63° (ENE) 14:44:42 435.822/435.867
Gurwin Techsat 1B 25 Jul 14:51:26 14:56:13 33° 264° (W) 15:01:01 435.225
PCSat 25 Jul 15:04:03 15:09:14 46° 246° (WSW) 15:14:23 145.827
VELOX 1 25 Jul 15:06:30 15:09:23 17° 299° (WNW) 15:12:15 145.980
SO-50 25 Jul 15:06:57 15:11:31 77° 52° (NE) 15:16:05 436.795
BEESAT 2 25 Jul 15:08:53 15:12:25 29° 317° (NW) 15:16:01 435.950
O/OREOS (USA 219) 25 Jul 15:08:57 15:12:53 31° 105° (ESE) 15:16:50 437.305
DX 1 25 Jul 15:09:44 15:13:52 40° 291° (WNW) 15:17:57 434.975-435.025
50 SAT 25 Jul 15:15:26 15:17:44 17° 295° (WNW) 15:20:00 437.505
MOZHAYETS 4 25 Jul 15:18:33 15:21:14 15° 90° (E) 15:23:56
AO-85 25 Jul 15:35:17 15:36:21 11° 332° (NNW) 15:37:24 145.980
UKube-1 25 Jul 15:52:03 15:55:30 23° 296° (WNW) 15:58:56 .
BEESAT 25 Jul 15:57:07 16:01:44 47° 100° (E) 16:06:17 436.000
ITUPSAT 1 25 Jul 16:10:34 16:15:19 62° 102° (ESE) 16:20:00 437.325
NO-84 25 Jul 16:12:32 16:15:36 25° 17° (NNE) 16:18:54 435.350 FM
ITAMSAT 1 25 Jul 16:14:35 16:19:33 43° 261° (W) 16:24:33 435.822/435.867
RS-15 25 Jul 16:19:18 16:31:21 69° 118° (ESE) 16:43:33 29.354- 29.394
AO-7 25 Jul 16:27:26 16:35:19 45° 260° (W) 16:43:17 .
CUTE-I 25 Jul 16:30:14 16:31:15 10° 52° (NE) 16:32:14 437.470
DOVE 4 25 Jul 16:40:35 16:44:43 27° 64° (ENE) 16:49:01 437.250
O/OREOS (USA 219) 25 Jul 16:48:15 16:52:15 31° 304° (NW) 16:56:16 437.305
SO-50 25 Jul 16:48:56 16:51:23 14° 250° (WSW) 16:53:51 436.795
MOZHAYETS 4 25 Jul 16:54:18 16:58:48 61° 288° (WNW) 17:03:17
XW-2D 25 Jul 17:05:59 17:08:00 14° 63° (ENE) 17:10:01 145.860 - 145.880
HO-68 25 Jul 17:13:31 17:17:20 15° 47° (NE) 17:21:09 435.675
XW-2B 25 Jul 17:15:31 17:18:00 17° 65° (ENE) 17:20:29 145.730 - 145.750
CUBESAT XI-V 25 Jul 17:29:52 17:34:32 66° 101° (E) 17:39:12 437.345
KKS-1 25 Jul 17:32:04 17:36:14 37° 97° (E) 17:40:23 437.445
XW-2C 25 Jul 17:32:07 17:35:15 26° 68° (ENE) 17:38:23 145.795 - 145.815
BEESAT 25 Jul 17:35:31 17:39:13 23° 297° (WNW) 17:42:53 436.000
NUDT-PHONESAT 25 Jul 17:38:11 17:41:05 22° 67° (ENE) 17:44:00 437.300
ITUPSAT 1 25 Jul 17:49:28 17:52:39 18° 300° (WNW) 17:55:51 437.325
NO-84 25 Jul 17:49:42 17:53:28 86° 31° (NNE) 17:57:35 435.350 FM
KAITUO 1B 25 Jul 17:52:48 17:56:08 33° 70° (ENE) 17:59:28 145.475/437.950
LilacSat-2 25 Jul 17:55:28 17:59:07 50° 73° (ENE) 18:02:47 437.200
STARS 25 Jul 18:00:36 18:04:33 31° 96° (E) 18:08:27 437.465
CUTE 1.7 + AOD 2 25 Jul 18:04:50 18:06:44 13° 60° (ENE) 18:08:38 437.475
CUTE-I 25 Jul 18:04:56 18:10:12 61° 71° (ENE) 18:15:31 437.470
YUBILEINY 25 Jul 18:06:34 18:13:57 32° 82° (E) 18:21:22 435.215
XW-2F 25 Jul 18:08:55 18:12:36 65° 75° (ENE) 18:16:18 145.980 - 146.000
SEEDS 25 Jul 18:16:56 18:18:02 11° 59° (ENE) 18:19:09 437.485
DOVE 4 25 Jul 18:17:27 18:22:08 44° 263° (W) 18:27:05 437.250
RS-15 25 Jul 18:32:48 18:44:38 50° 324° (NW) 18:56:31 29.354- 29.394
XW-2D 25 Jul 18:38:08 18:41:47 50° 260° (W) 18:45:27 145.860 - 145.880
UWE-3 25 Jul 18:46:29 18:48:29 13° 60° (ENE) 18:50:26 435.000/436.395/437.385
XW-2A 25 Jul 18:48:18 18:50:36 17° 66° (ENE) 18:52:54 145.665 - 145.685
XW-2B 25 Jul 18:48:22 18:51:54 39° 262° (W) 18:55:28 145.730 - 145.750
HO-68 25 Jul 18:56:40 19:03:44 63° 68° (ENE) 19:10:48 435.675
AAUSAT CUBESAT 2 25 Jul 18:57:44 18:59:51 14° 61° (ENE) 19:01:58 437.432
XW-2C 25 Jul 19:06:16 19:09:24 25° 265° (W) 19:12:32 145.795 - 145.815
CUBESAT XI-V 25 Jul 19:08:28 19:11:24 17° 299° (WNW) 19:14:20 437.345
KKS-1 25 Jul 19:08:57 19:12:38 25° 295° (WNW) 19:16:18 437.445
NUDT-PHONESAT 25 Jul 19:11:40 19:14:51 27° 264° (W) 19:18:04 437.300
CUBEBUG 2 25 Jul 19:23:05 19:27:32 44° 71° (ENE) 19:31:53 437.445
Oscar 11 25 Jul 19:24:41 19:26:08 12° 59° (ENE) 19:27:35 .
KAITUO 1B 25 Jul 19:27:35 19:30:13 18° 267° (W) 19:32:52 145.475/437.950
NO-84 25 Jul 19:28:03 19:30:37 17° 231° (SW) 19:33:17 435.350 FM
BEESAT 3 25 Jul 19:28:52 19:30:09 11° 28° (NNE) 19:31:25 437.485
LilacSat-2 25 Jul 19:31:52 19:33:41 13° 270° (W) 19:35:31 437.200
STARS 25 Jul 19:37:01 19:40:49 29° 294° (WNW) 19:44:34 437.465
AO-73 25 Jul 19:37:26 19:40:36 20° 64° (ENE) 19:43:44 145.935
CUTE 1.7 + AOD 2 25 Jul 19:37:49 19:42:00 72° 258° (WSW) 19:46:13 437.475
CUTE-I 25 Jul 19:46:45 19:50:40 20° 269° (W) 19:54:36 437.470
SEEDS 25 Jul 19:48:54 19:53:03 86° 257° (WSW) 19:57:15 437.485
YUBILEINY 25 Jul 20:01:24 20:10:10 64° 283° (WNW) 20:18:57 435.215
BEESAT 2 25 Jul 20:10:04 20:11:15 11° 28° (NNE) 20:12:26 435.950
ISS 25 Jul 20:15:53 20:17:20 12° 133° (SE) 20:18:48 437.550
UWE-3 25 Jul 20:19:44 20:24:19 83° 257° (WSW) 20:28:49 435.000/436.395/437.385
XW-2A 25 Jul 20:20:07 20:23:08 30° 263° (W) 20:26:10 145.665 - 145.685
Tancredo 1 25 Jul 20:28:10 20:30:54 36° 144° (SE) 20:33:39 437.200
AAUSAT CUBESAT 2 25 Jul 20:30:44 20:34:48 64° 259° (W) 20:38:54 437.432
STRAND 1 25 Jul 20:32:10 20:37:17 70° 103° (ESE) 20:42:21 437.568
ZACube-1 25 Jul 20:32:12 20:36:38 76° 75° (ENE) 20:40:59 437.345
AO-85 25 Jul 20:39:15 20:43:02 34° 46° (NE) 20:47:02 145.980
HO-68 25 Jul 20:45:56 20:51:55 28° 267° (W) 20:57:56 435.675
RS-15 25 Jul 20:50:22 21:01:00 31° 357° (N) 21:11:26 29.354- 29.394
nSIGHT-1 25 Jul 20:55:51 20:58:41 28° 140° (SE) 21:01:30 .
Oscar 11 25 Jul 20:57:18 21:01:37 86° 257° (WSW) 21:05:56 .
CUBEBUG 2 25 Jul 21:00:41 21:04:18 22° 267° (W) 21:07:53 437.445
BEESAT 3 25 Jul 21:04:43 21:08:39 51° 49° (NE) 21:12:31 437.485
AO-73 25 Jul 21:12:18 21:16:33 46° 261° (W) 21:20:43 145.935
DELFI C3 25 Jul 21:27:15 21:31:04 51° 73° (ENE) 21:34:56 145.870
EO-88 25 Jul 21:44:32 21:48:02 49° 73° (ENE) 21:51:35 145.990 - 145.960
BEESAT 2 25 Jul 21:46:00 21:49:59 48° 49° (NE) 21:53:53 435.950
ISS 25 Jul 21:50:05 21:53:19 79° 150° (SSE) 21:56:35 437.550
FO-29 25 Jul 21:59:35 22:06:13 39° 93° (E) 22:12:06 435.910
Tancredo 1 25 Jul 22:03:28 22:06:18 40° 342° (NNW) 22:09:06 437.200
YUBILEINY 25 Jul 22:04:16 22:09:04 15° 308° (NW) 22:13:53 435.215
ZACube-1 25 Jul 22:11:53 22:13:25 12° 272° (W) 22:14:56 437.345
ESTCUBE 1 25 Jul 22:12:03 22:14:18 14° 59° (ENE) 22:16:34 437.505/2401.250
STRAND 1 25 Jul 22:12:30 22:15:55 18° 301° (WNW) 22:19:18 437.568
TIGRISAT 25 Jul 22:19:02 22:22:29 23° 93° (E) 22:25:53 435.000
AO-85 25 Jul 22:19:38 22:23:24 32° 242° (WSW) 22:27:23 145.980
nSIGHT-1 25 Jul 22:31:46 22:34:57 53° 339° (NNW) 22:38:07 .
BEESAT 3 25 Jul 22:43:08 22:45:51 18° 248° (WSW) 22:48:32 437.485
PRISM 25 Jul 22:54:36 22:58:39 47° 100° (E) 23:02:41 437.425
DELFI C3 25 Jul 23:04:01 23:06:09 14° 270° (W) 23:08:18 145.870
RS-15 25 Jul 23:06:04 23:17:39 44° 31° (NNE) 23:28:44 29.354- 29.394
UNISAT 6 25 Jul 23:10:58 23:15:20 87° 110° (ESE) 23:19:36 437.425
LO-87 25 Jul 23:19:34 23:23:12 86° 257° (WSW) 23:26:53 145.935 - 145.965
EO-88 25 Jul 23:20:26 23:22:00 12° 270° (W) 23:23:35 145.990 - 145.960
BEESAT 2 25 Jul 23:24:28 23:27:25 19° 247° (WSW) 23:30:19 435.950
ISS 25 Jul 23:27:02 23:30:02 33° 349° (N) 23:33:02 437.550
SPROUT 25 Jul 23:37:54 23:41:24 25° 66° (ENE) 23:44:55 437.525
O/OREOS (USA 219) 25 Jul 23:37:54 23:40:16 14° 46° (NE) 23:42:38 437.305
Tancredo 1 25 Jul 23:39:37 23:42:10 25° 2° (N) 23:44:42 437.200
QB50P2 25 Jul 23:40:08 23:41:39 12° 88° (E) 23:43:09 145.880/145.840
FO-29 25 Jul 23:44:32 23:51:20 45° 296° (WNW) 23:57:23 435.910
ESTCUBE 1 25 Jul 23:46:02 23:50:30 76° 258° (WSW) 23:55:01 437.505/2401.250
M-CUBED/EXP-1 PRIME 25 Jul 23:46:25 23:51:00 62° 106° (ESE) 23:55:37 437.505
AIST 2D 25 Jul 23:51:05 23:54:10 28° 96° (E) 23:57:13 435.315
NANOSAT C BR1 25 Jul 23:51:06 23:52:57 13° 89° (E) 23:54:47 145.865
EO-79 25 Jul 23:51:14 23:53:31 14° 90° (E) 23:55:46 145.935-145.965
TIGRISAT 25 Jul 23:55:20 23:59:17 36° 292° (WNW) 00:03:11 435.000
nSIGHT-1 26 Jul 00:08:55 00:11:47 28° 358° (N) 00:14:39 .
50 SAT 26 Jul 00:16:13 00:18:39 19° 66° (ENE) 00:21:07 437.505
VELOX 1 26 Jul 00:28:07 00:32:30 70° 74° (ENE) 00:36:58 145.980
PRISM 26 Jul 00:30:43 00:33:36 18° 297° (WNW) 00:36:28 437.425
DX 1 26 Jul 00:31:46 00:35:24 26° 65° (ENE) 00:39:03 434.975-435.025
UNISAT 6 26 Jul 00:49:57 00:51:20 11° 302° (WNW) 00:52:44 437.425
DUCHIFAT 1 26 Jul 00:56:49 01:00:57 56° 100° (E) 01:05:03 145.980
POLYITAN 1 26 Jul 01:00:34 01:04:48 77° 104° (ESE) 01:08:59 437.675
ISS 26 Jul 01:04:05 01:07:03 32° 9° (N) 01:10:02 437.550
UKube-1 26 Jul 01:12:03 01:16:09 44° 70° (ENE) 01:20:17 .
SPROUT 26 Jul 01:13:13 01:17:09 34° 263° (W) 01:21:07 437.525
QB50P2 26 Jul 01:13:43 01:17:56 70° 286° (WNW) 01:22:06 145.880/145.840
Tancredo 1 26 Jul 01:15:06 01:17:59 49° 21° (NNE) 01:20:52 437.200
O/OREOS (USA 219) 26 Jul 01:15:50 01:20:21 88° 252° (WSW) 01:24:52 437.305
RS-15 26 Jul 01:19:15 01:31:25 80° 239° (WSW) 01:42:54 29.354- 29.394
M-CUBED/EXP-1 PRIME 26 Jul 01:21:44 01:24:59 19° 303° (WNW) 01:28:17 437.505
BUGSAT 1 26 Jul 01:22:28 01:26:08 30° 96° (E) 01:29:44 437.445
AIST 2D 26 Jul 01:24:37 01:27:12 20° 293° (WNW) 01:29:47 435.315
NANOSAT C BR1 26 Jul 01:24:55 01:29:06 64° 287° (WNW) 01:33:14 145.865
EO-79 26 Jul 01:25:30 01:29:39 57° 288° (WNW) 01:33:45 145.935-145.965
Gurwin Techsat 1B 26 Jul 01:27:28 01:28:52 11° 86° (E) 01:30:17 435.225
BEESAT 26 Jul 01:32:24 01:33:25 11° 55° (NE) 01:34:25 436.000
FO-29 26 Jul 01:33:09 01:34:23 10° 318° (NW) 01:35:37 435.910
ITUPSAT 1 26 Jul 01:44:42 01:47:04 14° 57° (ENE) 01:49:27 437.325
nSIGHT-1 26 Jul 01:45:34 01:48:41 44° 19° (NNE) 01:51:48 .
50 SAT 26 Jul 01:48:13 01:51:12 28° 263° (W) 01:54:14 437.505
VELOX 1 26 Jul 02:07:25 02:09:26 13° 271° (W) 02:11:28 145.980
DX 1 26 Jul 02:07:29 02:11:27 34° 263° (W) 02:15:28 434.975-435.025
